Vorticity
7 8 8 11 6 3 14 -2 -12 6 16 24 -9 -4 8 7 -2 -12 12 -9 11 6 1 8 5 5 5 5 6 7 5 6 6 3 4 4 4 6 9 8 5 6 6 7 7 8 6 5 5
9 8 9 10 -26 2 8 9 2 6 11 1 9 4 9 3 32 10 -0 4 7 10 1 3 9 3 5 6 8 7 6 6 5 5 5 6 7 8 11 6 2 6 5 4 7 8 6 6 5
10 6 10 -5 8 -8 -5 6 4 25 -3 -4 3 3 9 3 9 -12 3 2 -3 9 4 2 9 5 2 5 6 7 7 6 4 4 4 7 11 11 6 0 16 7 11 5 6 7 7 5 4
8 9 8 -9 -10 20 1 -0 2 1 25 -7 -5 5 13 9 6 11 9 11 5 4 3 1 6 7 5 6 7 7 8 7 4 4 6 8 8 8 7 -9 7 4 15 36 19 2 6 7 5
8 6 1 17 -1 -4 5 14 3 -3 29 -2 6 4 9 11 7 2 13 5 15 7 8 1 6 3 5 7 7 7 7 4 5 6 7 7 5 3 6 13 12 5 13 10 52 -17 0 12 9
10 4 -3 -5 3 2 -1 3 11 -12 11 13 5 -0 3 6 15 6 6 12 7 11 7 5 4 2 4 6 6 7 6 5 2 7 5 8 8 7 8 10 11 9 2 0 14 -1 11 6 -0
7 -0 -6 -9 24 -5 2 5 9 -2 -14 12 7 5 9 21 11 5 -1 8 6 6 3 9 6 2 2 6 6 6 8 3 4 6 6 5 5 8 13 13 6 5 9 8 2 8 5 -6 6
5 6 -0 8 7 -3 13 8 3 24 -10 -1 -3 4 -1 4 17 1 -3 0 7 11 7 8 5 1 1 7 5 5 7 7 8 5 7 5 7 6 9 1 2 3 7 7 7 10 13 4 5
10 -6 17 -2 -2 -7 7 12 8 13 25 3 14 6 5 25 15 21 2 0 -0 7 9 11 4 1 1 3 10 6 8 7 8 3 8 4 4 4 5 4 4 5 12 12 6 17 15 3 14
5 -10 7 12 2 3 1 6 13 3 -11 -12 4 6 2 13 6 5 19 -5 -0 -2 7 8 3 1 3 1 9 7 5 5 7 4 -0 3 3 1 2 4 4 5 5 5 11 8 12 9 8
10 -3 -14 15 -2 7 -2 12 11 18 1 10 5 4 2 1 9 13 8 24 13 -1 3 5 5 0 3 1 7 8 5 5 5 2 2 9 2 2 1 2 2 4 6 6 10 16 7 8 8
16 10 -10 15 -2 7 5 7 1 8 21 10 14 4 -0 6 15 2 12 15 13 4 1 6 7 2 3 3 1 8 7 4 6 5 6 9 3 1 0 3 4 3 5 6 8 15 3 2 5
4 6 35 -23 14 4 4 2 9 -6 -9 2 24 7 3 3 8 16 5 14 3 14 7 2 5 7 -1 3 2 8 7 7 7 8 7 5 3 2 0 3 3 4 3 5 7 5 21 1 6
19 -17 -9 57 -11 6 12 7 7 8 4 2 10 9 3 9 4 8 7 5 14 7 12 11 6 4 4 5 3 6 8 6 7 7 6 3 3 2 2 2 3 3 3 4 4 5 4 3 3
35 -36 48 -29 35 -0 12 15 12 -3 12 5 2 16 8 4 11 11 11 6 5 10 10 10 10 6 4 4 4 4 3 8 6 7 8 3 1 2 1 3 2 2 3 2 3 4 5 5 5
43 14 -20 33 -19 30 -15 8 4 24 -3 7 11 11 11 -11 -4 5 6 9 15 12 5 4 10 11 5 4 5 6 5 5 4 5 5 2 2 2 1 -0 5 3 2 2 3 3 3 5 5
4 37 14 -26 50 -21 13 16 12 26 7 5 -2 12 17 8 12 20 15 -3 -13 -9 10 8 7 8 1 9 5 7 5 5 5 5 4 5 8 4 -4 -2 4 3 4 4 2 2 3 4 3
44 11 16 25 -29 50 -9 4 15 9 4 11 8 11 14 7 7 3 6 14 16 11 4 9 10 7 -2 10 7 18 5 6 6 1 7 9 11 1 7 12 -0 13 9 7 6 2 5 2 3
-23 -17 67 -8 38 -4 16 14 -21 25 20 1 4 6 15 11 9 6 14 21 13 16 21 8 10 6 20 -8 10 -2 11 4 5 2 8 0 11 -1 21 1 10 12 14 14 12 10 1 8 8
-31 19 18 12 4 20 10 13 2 -24 32 5 2 13 0 0 -2 3 -6 16 14 8 11 9 9 12 6 -4 9 14 2 4 0 7 8 13 3 2 6 2 -3 3 14 15 12 9 13 11 6
13 29 -39 37 -4 31 26 20 23 -20 -20 11 6 -2 17 2 -2 -0 1 1 11 16 13 38 -6 28 -15 -8 7 15 2 -2 3 4 -4 11 5 12 -2 14 17 -1 11 6 12 13 7 11 10
14 13 37 -5 39 -8 12 70 10 24 -1 -9 13 14 -7 13 9 1 2 9 7 5 11 19 19 -25 20 -1 -23 4 -31 23 -4 -36 1 26 20 3 9 15 9 6 -6 11 11 1 16 14 14
29 13 18 -23 15 33 35 -49 81 15 21 21 7 12 18 3 7 6 2 9 7 -1 3 8 20 13 60 -3 -20 10 51 -11 -1 -12 43 -14 4 29 16 11 5 -5 8 9 11 10 9 7 8
-38 53 24 11 38 18 18 -51 47 29 10 29 5 6 8 16 9 8 3 7 13 13 7 3 9 17 -1 5 4 15 -4 -25 25 -14 44 -39 14 -14 -11 -5 21 7 5 3 6 7 13 4 4
11 16 20 20 17 -9 25 5 3 14 24 27 5 -7 14 16 13 -4 5 4 10 4 12 11 5 2 2 8 14 30 -17 -14 -1 -13 3 91 -10 -11 11 8 8 3 1 21 4 11 3 11 -0
25 -19 20 8 8 11 27 6 24 21 14 -1 16 22 -6 9 22 22 2 0 -5 0 6 3 13 17 13 5 8 -7 9 50 -1 -9 22 -32 8 -0 -1 8 17 -5 -4 9 4 -1 8 16 3
4 16 12 5 12 -9 15 16 13 23 17 28 17 15 3 12 13 5 17 8 10 6 5 3 8 6 7 6 1 -4 19 -6 24 -1 41 34 4 -18 17 8 5 22 7 5 2 7 -1 7 8
28 23 8 10 9 10 12 1 16 26 21 24 20 11 14 10 6 6 7 3 10 5 7 6 4 4 25 22 10 2 7 3 -0 30 -5 -16 -5 20 -13 -12 10 15 -0 11 9 -3 4 -1 8
51 23 20 11 12 12 9 7 18 23 27 17 6 9 10 3 -0 8 17 7 -8 3 7 4 0 8 22 9 26 -1 9 -4 19 29 7 -5 -30 2 -6 1 35 14 5 -7 17 9 2 13 7
-3 44 27 13 2 14 24 9 26 21 21 24 12 13 10 7 7 10 14 20 15 15 17 20 21 17 18 8 7 0 1 18 34 35 9 6 -5 -36 0 3 -2 28 -9 24 2 5 9 4 0
Height
3112 3114 3115 3118 3124 3116 3112 3112 3116 3121 3123 3126 3129 3131 3133 3135 3137 3141 3141 3144 3147 3151 3152 3154 3156 3159 3160 3161 3163 3165 3167 3169 3171 3173 3175 3176 3178 3178 3180 3181 3183 3184 3185 3186 3188 3189 3191 3192 3193
3106 3108 3111 3110 3109 3104 3102 3108 3111 3118 3123 3123 3126 3128 3130 3132 3134 3137 3138 3142 3146 3150 3152 3153 3156 3158 3160 3162 3163 3165 3167 3169 3171 3173 3175 3177 3178 3179 3180 3183 3184 3186 3187 3188 3189 3191 3193 3194 3195
3100 3102 3105 3101 3097 3091 3097 3102 3109 3116 3120 3122 3123 3126 3127 3130 3133 3135 3137 3140 3144 3148 3151 3153 3155 3158 3160 3162 3163 3165 3167 3169 3171 3173 3175 3177 3178 3179 3181 3183 3185 3187 3189 3191 3191 3192 3194 3195 3197
3093 3096 3097 3088 3082 3088 3094 3101 3109 3113 3115 3117 3120 3123 3125 3127 3130 3134 3136 3139 3142 3146 3150 3152 3155 3157 3159 3162 3163 3165 3167 3169 3171 3173 3174 3177 3178 3180 3182 3183 3185 3186 3188 3191 3192 3192 3194 3197 3199
3086 3086 3085 3075 3075 3082 3093 3100 3105 3108 3110 3112 3115 3118 3121 3122 3127 3131 3134 3138 3140 3144 3148 3151 3154 3157 3159 3161 3163 3165 3167 3169 3171 3173 3174 3176 3178 3180 3182 3183 3185 3186 3187 3190 3192 3192 3194 3195 3198
3077 3077 3071 3063 3068 3079 3088 3094 3098 3102 3104 3108 3111 3114 3118 3119 3124 3128 3132 3135 3138 3142 3146 3150 3153 3156 3158 3160 3163 3164 3167 3169 3171 3173 3175 3177 3178 3180 3182 3184 3185 3186 3187 3187 3187 3191 3196 3198 3198
3066 3065 3057 3060 3064 3073 3081 3089 3091 3097 3100 3103 3108 3110 3113 3114 3120 3125 3130 3132 3136 3140 3143 3147 3151 3154 3157 3160 3162 3164 3166 3168 3171 3174 3176 3178 3180 3181 3182 3184 3186 3187 3188 3190 3191 3194 3198 3200 3201
3061 3060 3054 3052 3057 3063 3076 3080 3087 3091 3097 3102 3103 3104 3108 3109 3114 3120 3125 3129 3133 3136 3140 3145 3148 3152 3155 3158 3161 3164 3166 3168 3171 3174 3176 3178 3180 3181 3183 3185 3187 3188 3190 3191 3193 3195 3198 3200 3202
3054 3048 3034 3042 3051 3059 3070 3074 3082 3088 3091 3094 3095 3099 3106 3105 3110 3114 3119 3123 3128 3132 3137 3141 3145 3149 3153 3156 3159 3163 3166 3168 3171 3173 3176 3178 3181 3182 3184 3186 3188 3189 3190 3192 3195 3195 3198 3200 3202
3037 3029 3026 3038 3049 3055 3062 3069 3077 3081 3083 3085 3091 3095 3099 3102 3106 3110 3113 3118 3124 3128 3133 3137 3142 3147 3150 3154 3157 3161 3164 3166 3170 3173 3176 3178 3181 3182 3185 3187 3189 3190 3192 3193 3195 3197 3199 3200 3202
3023 3003 3029 3033 3044 3053 3057 3062 3068 3070 3074 3079 3085 3092 3093 3096 3102 3105 3109 3114 3120 3125 3129 3134 3138 3143 3148 3152 3155 3158 3162 3165 3168 3171 3175 3178 3181 3184 3186 3188 3189 3191 3193 3195 3195 3197 3199 3201 3203
3014 3014 3023 3030 3040 3046 3048 3057 3059 3062 3068 3075 3082 3087 3089 3092 3097 3101 3105 3109 3115 3120 3126 3130 3135 3140 3145 3150 3153 3157 3159 3163 3166 3170 3174 3177 3181 3184 3186 3188 3190 3192 3194 3195 3197 3198 3200 3203 3204
3000 3010 3017 3026 3033 3038 3046 3046 3052 3055 3064 3068 3074 3080 3084 3088 3094 3098 3102 3106 3111 3116 3122 3127 3132 3137 3142 3146 3151 3155 3158 3162 3165 3168 3172 3176 3180 3183 3185 3188 3190 3192 3194 3195 3197 3199 3200 3202 3204
2996 3006 3013 3017 3023 3029 3033 3039 3044 3048 3058 3061 3066 3074 3079 3083 3088 3094 3098 3102 3107 3112 3117 3122 3127 3134 3139 3144 3148 3153 3157 3160 3164 3167 3171 3174 3178 3181 3184 3186 3189 3191 3193 3196 3198 3199 3201 3202 3204
2994 3001 3006 3005 3013 3019 3028 3028 3023 3041 3050 3054 3059 3067 3073 3078 3082 3088 3096 3099 3103 3108 3113 3117 3123 3128 3134 3140 3145 3149 3154 3157 3161 3165 3168 3172 3176 3179 3181 3184 3187 3189 3192 3194 3196 3198 3200 3201 3203
2985 2995 2989 2991 3007 3010 3023 2999 3022 3034 3042 3047 3052 3058 3065 3071 3077 3083 3090 3094 3097 3103 3108 3114 3119 3123 3129 3136 3141 3146 3150 3155 3159 3162 3166 3170 3174 3177 3180 3183 3185 3188 3190 3192 3194 3196 3198 3200 3202
2970 2967 2973 2986 2992 3004 3008 3000 3014 3026 3033 3040 3045 3051 3059 3065 3069 3075 3082 3089 3093 3099 3105 3110 3115 3120 3124 3130 3136 3141 3146 3151 3155 3159 3163 3167 3170 3174 3177 3180 3182 3185 3187 3190 3191 3193 3195 3197 3200
2955 2962 2968 2973 2985 2992 2998 2998 3006 3019 3025 3032 3038 3044 3052 3057 3063 3070 3076 3080 3086 3091 3099 3106 3110 3116 3120 3127 3131 3136 3142 3146 3151 3156 3160 3163 3166 3170 3174 3176 3179 3181 3183 3185 3188 3189 3191 3193 3196
2958 2958 2960 2969 2979 2985 2985 2996 3003 3010 3018 3025 3031 3037 3044 3051 3058 3065 3069 3072 3076 3083 3090 3099 3104 3111 3115 3121 3126 3131 3136 3142 3146 3151 3155 3159 3163 3167 3169 3172 3175 3177 3179 3181 3184 3186 3188 3189 3192
2945 2952 2956 2964 2972 2979 2981 2985 2995 3006 3009 3018 3025 3031 3038 3044 3050 3056 3062 3068 3073 3078 3086 3092 3098 3105 3111 3116 3121 3127 3133 3137 3143 3146 3150 3155 3158 3162 3166 3169 3171 3174 3176 3177 3179 3182 3184 3186 3188
2941 2944 2951 2955 2963 2969 2980 2981 2987 2993 3004 3012 3019 3027 3033 3038 3043 3049 3055 3062 3068 3074 3080 3084 3094 3097 3105 3111 3116 3120 3126 3132 3137 3142 3146 3150 3154 3158 3162 3165 3168 3170 3172 3175 3177 3178 3180 3182 3184
2933 2939 2945 2951 2957 2959 2966 2964 2974 2982 2991 3003 3010 3017 3024 3030 3037 3045 3050 3056 3063 3069 3075 3082 3087 3092 3101 3104 3108 3115 3122 3126 3131 3137 3142 3146 3150 3155 3158 3161 3164 3166 3168 3171 3173 3175 3177 3178 3180
2931 2934 2939 2944 2949 2951 2955 2961 2959 2973 2982 2989 2999 3008 3015 3024 3031 3039 3046 3053 3059 3065 3071 3076 3080 3086 3089 3100 3103 3105 3095 3117 3121 3124 3135 3141 3145 3149 3152 3157 3160 3162 3164 3167 3169 3170 3172 3174 3176
2927 2930 2937 2942 2942 2939 2942 2951 2955 2961 2967 2977 2991 3000 3008 3015 3021 3031 3040 3047 3053 3059 3065 3071 3076 3082 3086 3093 3097 3101 3109 3114 3115 3125 3127 3130 3138 3144 3146 3151 3154 3157 3160 3162 3164 3165 3167 3169 3171
2924 2924 2926 2935 2929 2928 2937 2947 2948 2954 2962 2971 2980 2991 2999 3008 3016 3026 3034 3041 3047 3053 3059 3064 3070 3076 3081 3085 3090 3096 3103 3109 3114 3116 3122 3124 3131 3136 3140 3145 3149 3152 3154 3156 3158 3159 3161 3164 3166
2918 2919 2915 2917 2920 2929 2935 2935 2941 2949 2955 2963 2976 2985 2994 3002 3010 3019 3028 3035 3041 3047 3053 3059 3064 3069 3074 3081 3087 3091 3095 3097 3107 3113 3118 3121 3126 3129 3134 3140 3143 3146 3147 3150 3151 3154 3156 3158 3160
2918 2918 2920 2923 2921 2925 2935 2941 2945 2947 2954 2960 2972 2981 2987 2995 3003 3011 3020 3027 3034 3039 3047 3053 3058 3063 3068 3075 3081 3080 3089 3094 3102 3109 3109 3113 3118 3123 3128 3133 3136 3139 3142 3144 3145 3148 3151 3153 3155
2917 2920 2922 2920 2926 2926 2939 2943 2944 2949 2956 2960 2970 2976 2982 2990 2999 3006 3013 3020 3027 3033 3040 3046 3051 3056 3060 3066 3070 3079 3082 3087 3094 3100 3101 3106 3111 3116 3121 3125 3128 3132 3135 3138 3139 3141 3144 3145 3146
2922 2922 2923 2923 2925 2928 2935 2947 2948 2950 2954 2959 2965 2971 2979 2988 2994 3001 3008 3015 3020 3027 3033 3039 3045 3049 3054 3060 3066 3072 3076 3083 3086 3089 3094 3101 3104 3111 3113 3117 3120 3124 3126 3131 3133 3134 3136 3138 3139
2936 2930 2926 2927 2932 2934 2938 2951 2948 2949 2953 2959 2965 2969 2976 2984 2991 2998 3004 3009 3015 3021 3027 3032 3036 3042 3048 3054 3060 3065 3070 3073 3078 3082 3086 3092 3096 3101 3104 3110 3115 3118 3120 3122 3124 3127 3129 3131 3133